Hourly Weather Lukyshchyna

Today, 19 May, Wednesday

Time Temperature Precipitation Wind Pressure Humidity
00:00 +13°C° 0 mm 4 mps 744 mmHg 96%
01:00 +12°C° 0 mm 4 mps 744 mmHg 96%
02:00 +12°C° 0 mm 4 mps 744 mmHg 96%
03:00 +12°C° 0 mm 4 mps 744 mmHg 96%
04:00 +12°C° 0 mm 4 mps 744 mmHg 96%
05:00 +12°C° 0 mm 4 mps 744 mmHg 96%
06:00 +13°C° 0 mm 4 mps 744 mmHg 90%
07:00 +14°C° 0 mm 4 mps 744 mmHg 84%
08:00 +17°C° 0 mm 4 mps 745 mmHg 78%
09:00 +16°C° 0.2 mm 5 mps 745 mmHg 73%
10:00 +17°C° 0.2 mm 5 mps 745 mmHg 68%
11:00 +19°C° 0.2 mm 5 mps 745 mmHg 63%
12:00 +20°C° 0.4 mm 4 mps 745 mmHg 61%
13:00 +20°C° 0.4 mm 4 mps 745 mmHg 59%
14:00 +20°C° 0.4 mm 3 mps 745 mmHg 57%
15:00 +20°C° 0.4 mm 3 mps 745 mmHg 63%
16:00 +19°C° 0.4 mm 2 mps 745 mmHg 68%
17:00 +18°C° 0.4 mm 2 mps 744 mmHg 74%
18:00 +17°C° 0.1 mm 2 mps 745 mmHg 76%
19:00 +16°C° 0.1 mm 2 mps 745 mmHg 78%
20:00 +15°C° 0.1 mm 2 mps 745 mmHg 80%
21:00 +15°C° 0 mm 2 mps 745 mmHg 84%
22:00 +14°C° 0 mm 2 mps 745 mmHg 87%
23:00 +12°C° 0 mm 3 mps 745 mmHg 91%

Tomorrow, 20 May, Thursday

Time Temperature Precipitation Wind Pressure Humidity
00:00 +12°C° 0 mm 3 mps 745 mmHg 92%
01:00 +12°C° 0 mm 4 mps 745 mmHg 93%
02:00 +12°C° 0 mm 5 mps 745 mmHg 94%
03:00 +12°C° 0.1 mm 4 mps 746 mmHg 94%
04:00 +12°C° 0.1 mm 4 mps 746 mmHg 94%
05:00 +12°C° 0.1 mm 4 mps 746 mmHg 94%
06:00 +12°C° 0 mm 4 mps 747 mmHg 93%
07:00 +12°C° 0 mm 5 mps 747 mmHg 91%
08:00 +12°C° 0 mm 5 mps 748 mmHg 90%
09:00 +13°C° 0 mm 5 mps 748 mmHg 87%
10:00 +13°C° 0 mm 5 mps 749 mmHg 84%
11:00 +14°C° 0 mm 5 mps 749 mmHg 80%
12:00 +15°C° 0 mm 5 mps 749 mmHg 77%
13:00 +15°C° 0 mm 5 mps 750 mmHg 73%
14:00 +16°C° 0 mm 5 mps 750 mmHg 69%
15:00 +17°C° 0 mm 4 mps 750 mmHg 68%
16:00 +18°C° 0 mm 4 mps 750 mmHg 67%
17:00 +18°C° 0 mm 4 mps 750 mmHg 66%
18:00 +17°C° 0 mm 3 mps 751 mmHg 71%
19:00 +15°C° 0 mm 2 mps 751 mmHg 77%
20:00 +14°C° 0 mm 2 mps 752 mmHg 83%
21:00 +14°C° 0 mm 2 mps 752 mmHg 81%
22:00 +14°C° 0 mm 2 mps 752 mmHg 80%
23:00 +13°C° 0 mm 2 mps 752 mmHg 78%

Day after tomorrow, 21 May, Friday

Time Temperature Precipitation Wind Pressure Humidity
00:00 +13°C° 0 mm 2 mps 752 mmHg 79%
01:00 +13°C° 0 mm 2 mps 752 mmHg 80%
02:00 +13°C° 0 mm 1 mps 752 mmHg 81%
03:00 +12°C° 0.2 mm 2 mps 752 mmHg 84%
04:00 +11°C° 0.2 mm 3 mps 752 mmHg 86%
05:00 +11°C° 0.2 mm 3 mps 752 mmHg 88%
06:00 +12°C° 0 mm 4 mps 752 mmHg 83%
07:00 +13°C° 0 mm 5 mps 752 mmHg 77%
08:00 +15°C° 0 mm 5 mps 752 mmHg 71%
09:00 +15°C° 0 mm 5 mps 752 mmHg 69%
10:00 +16°C° 0 mm 5 mps 752 mmHg 67%
11:00 +17°C° 0 mm 6 mps 752 mmHg 65%
12:00 +19°C° 0.1 mm 5 mps 752 mmHg 65%
13:00 +19°C° 0.1 mm 5 mps 752 mmHg 64%
14:00 +20°C° 0.1 mm 5 mps 751 mmHg 64%
15:00 +20°C° 0.1 mm 5 mps 751 mmHg 68%
16:00 +19°C° 0.1 mm 5 mps 751 mmHg 73%
17:00 +19°C° 0.1 mm 5 mps 751 mmHg 77%
18:00 +17°C° 0.6 mm 5 mps 751 mmHg 81%
19:00 +16°C° 0.6 mm 5 mps 751 mmHg 86%
20:00 +15°C° 0.6 mm 5 mps 751 mmHg 91%
21:00 +14°C° 0.7 mm 5 mps 751 mmHg 92%
22:00 +14°C° 0.7 mm 5 mps 751 mmHg 94%
23:00 +14°C° 0.7 mm 5 mps 750 mmHg 95%

22 May, Saturday

Time Temperature Precipitation Wind Pressure Humidity
00:00 +14°C° 0.1 mm 5 mps 750 mmHg 95%
01:00 +13°C° 0.1 mm 5 mps 750 mmHg 95%
02:00 +13°C° 0.1 mm 5 mps 750 mmHg 95%
03:00 +13°C° 0 mm 5 mps 750 mmHg 94%
04:00 +14°C° 0 mm 5 mps 749 mmHg 94%
05:00 +14°C° 0 mm 5 mps 749 mmHg 93%
06:00 +15°C° 0 mm 5 mps 749 mmHg 90%
07:00 +16°C° 0 mm 5 mps 749 mmHg 87%
08:00 +17°C° 0 mm 5 mps 749 mmHg 84%
09:00 +19°C° 0 mm 4 mps 750 mmHg 79%
10:00 +21°C° 0 mm 4 mps 750 mmHg 73%
11:00 +22°C° 0 mm 4 mps 750 mmHg 68%
12:00 +24°C° 0 mm 3 mps 750 mmHg 65%
13:00 +25°C° 0 mm 3 mps 749 mmHg 63%
14:00 +26°C° 0 mm 3 mps 749 mmHg 61%
15:00 +25°C° 0 mm 3 mps 749 mmHg 64%
16:00 +25°C° 0 mm 3 mps 749 mmHg 66%
17:00 +25°C° 0 mm 2 mps 749 mmHg 69%
18:00 +24°C° 0 mm 3 mps 749 mmHg 75%
19:00 +21°C° 0 mm 3 mps 749 mmHg 80%
20:00 +20°C° 0 mm 3 mps 749 mmHg 86%
21:00 +19°C° 0 mm 3 mps 750 mmHg 88%
22:00 +18°C° 0 mm 2 mps 750 mmHg 91%
23:00 +17°C° 0 mm 2 mps 750 mmHg 93%

23 May, Sunday

Time Temperature Precipitation Wind Pressure Humidity
00:00 +17°C° 0 mm 2 mps 750 mmHg 94%
01:00 +17°C° 0 mm 2 mps 750 mmHg 94%
02:00 +16°C° 0 mm 1 mps 750 mmHg 94%
03:00 +17°C° 0 mm 2 mps 750 mmHg 94%
04:00 +17°C° 0 mm 2 mps 750 mmHg 94%
05:00 +17°C° 0 mm 2 mps 750 mmHg 94%
06:00 +18°C° 0 mm 2 mps 750 mmHg 89%
07:00 +20°C° 0 mm 2 mps 750 mmHg 83%
08:00 +21°C° 0 mm 2 mps 750 mmHg 78%
09:00 +24°C° 0 mm 2 mps 750 mmHg 73%
10:00 +25°C° 0 mm 2 mps 750 mmHg 68%
11:00 +26°C° 0 mm 2 mps 750 mmHg 63%
12:00 +27°C° 0 mm 2 mps 750 mmHg 60%
13:00 +27°C° 0 mm 2 mps 750 mmHg 58%
14:00 +28°C° 0 mm 3 mps 750 mmHg 55%
15:00 +28°C° 0 mm 2 mps 750 mmHg 57%
16:00 +27°C° 0 mm 2 mps 750 mmHg 60%
17:00 +27°C° 0 mm 2 mps 749 mmHg 62%
18:00 +25°C° 0 mm 2 mps 749 mmHg 68%
19:00 +23°C° 0 mm 2 mps 750 mmHg 75%
20:00 +20°C° 0 mm 2 mps 750 mmHg 81%
21:00 +19°C° 0 mm 2 mps 750 mmHg 83%
22:00 +19°C° 0 mm 2 mps 750 mmHg 84%
23:00 +18°C° 0 mm 2 mps 750 mmHg 85%

24 May, Monday

Time Temperature Precipitation Wind Pressure Humidity
00:00 +18°C° 0 mm 2 mps 750 mmHg 87%
01:00 +17°C° 0 mm 2 mps 750 mmHg 89%
02:00 +16°C° 0 mm 2 mps 750 mmHg 91%
03:00 +16°C° 0 mm 2 mps 750 mmHg 91%
04:00 +16°C° 0 mm 3 mps 751 mmHg 91%
05:00 +16°C° 0 mm 3 mps 751 mmHg 91%
06:00 +17°C° 0 mm 4 mps 751 mmHg 86%
07:00 +17°C° 0 mm 4 mps 752 mmHg 82%
08:00 +17°C° 0 mm 5 mps 752 mmHg 78%
09:00 +17°C° 0 mm 5 mps 753 mmHg 77%
10:00 +17°C° 0 mm 6 mps 753 mmHg 77%
11:00 +17°C° 0 mm 6 mps 754 mmHg 77%
12:00 +16°C° 0 mm 6 mps 754 mmHg 76%
13:00 +16°C° 0 mm 5 mps 754 mmHg 76%
14:00 +16°C° 0 mm 5 mps 754 mmHg 75%
15:00 +16°C° 0 mm 5 mps 755 mmHg 73%
16:00 +17°C° 0 mm 5 mps 755 mmHg 71%
17:00 +17°C° 0 mm 5 mps 755 mmHg 69%
18:00 +17°C° 0 mm 4 mps 755 mmHg 73%
19:00 +15°C° 0 mm 4 mps 756 mmHg 76%
20:00 +14°C° 0 mm 4 mps 756 mmHg 79%
21:00 +13°C° 0 mm 4 mps 757 mmHg 82%
22:00 +13°C° 0 mm 4 mps 757 mmHg 85%
23:00 +12°C° 0 mm 4 mps 757 mmHg 88%
Show more

We Need Your Consent

Meteoprog and our Service Providers may store and access personal data such as cookies, device identifiers or other similar technologies on your device and process such data to personalise content and ads, as well as provide social media features and to analyse the traffic.

  • Store and/or access information on your device

    Cookies, device identifiers or other information can be stored or accessed on your device for the purposes indicated above.

  • Personalised ads and content, ad and content measurement, audience insights, and products development

    Ads and content can be personalised based on a profile. More data can be added to better personalise ads and content. Ad and content performance can be measured. Insights about the audience who saw the ads and content can be derived. Such data can be used to develop or improve user’s experience, systems and software.

By clicking ‘I Agree’ you will allow the use of indicated cookies, device identifiers, web beacons or other similar technologies. Your settings can be changed in the browser on your device.

For certain purposes, legitimate interests may be relied on, rather than consent. You can read more about this in our Privacy and Cookie Policy.